Year,Month,Day,Hour,Minute,Value (Times are PST for temperature in C)
2015,06,27,00,00,21.50
2015,06,27,00,01,21.40
2015,06,27,00,02,21.40
2015,06,27,00,03,21.30
2015,06,27,00,04,21.30
2015,06,27,00,05,21.20
2015,06,27,00,06,21.20
2015,06,27,00,07,21.20
2015,06,27,00,08,21.30
2015,06,27,00,09,21.40
2015,06,27,00,10,21.50
2015,06,27,00,11,21.80
2015,06,27,00,12,22.00
2015,06,27,00,13,22.20
2015,06,27,00,14,22.40
2015,06,27,00,15,22.70
2015,06,27,00,16,22.80
2015,06,27,00,17,23.00
2015,06,27,00,18,23.10
2015,06,27,00,19,23.10
2015,06,27,00,20,23.20
2015,06,27,00,21,23.20
2015,06,27,00,22,23.20
2015,06,27,00,23,23.20
2015,06,27,00,24,23.20
2015,06,27,00,25,23.20
2015,06,27,00,26,23.20
2015,06,27,00,27,23.20
2015,06,27,00,28,23.10
2015,06,27,00,29,23.10
2015,06,27,00,30,23.10
2015,06,27,00,31,23.10
2015,06,27,00,32,23.10
2015,06,27,00,33,23.00
2015,06,27,00,34,23.10
2015,06,27,00,35,23.00
2015,06,27,00,36,23.00
2015,06,27,00,37,23.00
2015,06,27,00,38,23.00
2015,06,27,00,39,23.00
2015,06,27,00,40,22.90
2015,06,27,00,41,22.90
2015,06,27,00,42,22.90
2015,06,27,00,43,22.90
2015,06,27,00,44,22.90
2015,06,27,00,45,22.90
2015,06,27,00,46,22.90
2015,06,27,00,47,22.80
2015,06,27,00,48,22.80
2015,06,27,00,49,22.80
2015,06,27,00,50,22.80
2015,06,27,00,51,22.80
2015,06,27,00,52,22.70
2015,06,27,00,53,22.80
2015,06,27,00,54,22.70
2015,06,27,00,55,22.70
2015,06,27,00,56,22.70
2015,06,27,00,57,22.70
2015,06,27,00,58,22.70
2015,06,27,00,59,22.70
2015,06,27,01,00,22.70
2015,06,27,01,01,22.70
2015,06,27,01,02,22.60
2015,06,27,01,03,22.60
2015,06,27,01,04,22.60
2015,06,27,01,05,22.50
2015,06,27,01,06,22.50
2015,06,27,01,07,22.40
2015,06,27,01,08,22.40
2015,06,27,01,09,22.40
2015,06,27,01,10,22.30
2015,06,27,01,11,22.30
2015,06,27,01,12,22.30
2015,06,27,01,13,22.20
2015,06,27,01,14,22.20
2015,06,27,01,15,22.20
2015,06,27,01,16,22.20
2015,06,27,01,17,22.10
2015,06,27,01,18,22.10
2015,06,27,01,19,22.10
2015,06,27,01,20,22.10
2015,06,27,01,21,22.00
2015,06,27,01,22,22.00
2015,06,27,01,23,22.00
2015,06,27,01,24,22.00
2015,06,27,01,25,21.90
2015,06,27,01,26,21.90
2015,06,27,01,27,21.90
2015,06,27,01,28,21.80
2015,06,27,01,29,21.80
2015,06,27,01,30,21.80
2015,06,27,01,31,21.80
2015,06,27,01,32,21.80
2015,06,27,01,33,21.80
2015,06,27,01,34,21.80
2015,06,27,01,35,21.80
2015,06,27,01,36,21.80
2015,06,27,01,37,21.80
2015,06,27,01,38,21.70
2015,06,27,01,39,21.70
2015,06,27,01,40,21.70
2015,06,27,01,41,21.60
2015,06,27,01,42,21.60
2015,06,27,01,43,21.60
2015,06,27,01,44,21.50
2015,06,27,01,45,21.40
2015,06,27,01,46,21.40
2015,06,27,01,47,21.40
2015,06,27,01,48,21.40
2015,06,27,01,49,21.30
2015,06,27,01,50,21.30
2015,06,27,01,51,21.20
2015,06,27,01,52,21.20
2015,06,27,01,53,21.20
2015,06,27,01,54,21.10
2015,06,27,01,55,21.10
2015,06,27,01,56,21.10
2015,06,27,01,57,21.10
2015,06,27,01,58,21.10
2015,06,27,01,59,21.00
2015,06,27,02,00,21.00
2015,06,27,02,01,21.00
2015,06,27,02,02,21.00
2015,06,27,02,03,21.00
2015,06,27,02,04,21.00
2015,06,27,02,05,21.00
2015,06,27,02,06,21.00
2015,06,27,02,07,21.10
2015,06,27,02,08,21.10
2015,06,27,02,09,21.10
2015,06,27,02,10,21.10
2015,06,27,02,11,21.10
2015,06,27,02,12,21.10
2015,06,27,02,13,21.00
2015,06,27,02,14,21.00
2015,06,27,02,15,21.00
2015,06,27,02,16,21.00
2015,06,27,02,17,20.90
2015,06,27,02,18,20.90
2015,06,27,02,19,20.90
2015,06,27,02,20,20.80
2015,06,27,02,21,20.80
2015,06,27,02,22,20.80
2015,06,27,02,23,20.70
2015,06,27,02,24,20.70
2015,06,27,02,25,20.70
2015,06,27,02,26,20.70
2015,06,27,02,27,20.60
2015,06,27,02,28,20.60
2015,06,27,02,29,20.60
2015,06,27,02,30,20.60
2015,06,27,02,31,20.50
2015,06,27,02,32,20.50
2015,06,27,02,33,20.40
2015,06,27,02,34,20.40
2015,06,27,02,35,20.40
2015,06,27,02,36,20.40
2015,06,27,02,37,20.30
2015,06,27,02,38,20.30
2015,06,27,02,39,20.20
2015,06,27,02,40,20.20
2015,06,27,02,41,20.20
2015,06,27,02,42,20.20
2015,06,27,02,43,20.10
2015,06,27,02,44,20.10
2015,06,27,02,45,20.10
2015,06,27,02,46,20.10
2015,06,27,02,47,20.10
2015,06,27,02,48,20.10
2015,06,27,02,49,20.10
2015,06,27,02,50,20.10
2015,06,27,02,51,20.10
2015,06,27,02,52,20.10
2015,06,27,02,53,20.00
2015,06,27,02,54,20.00
2015,06,27,02,55,19.90
2015,06,27,02,56,19.90
2015,06,27,02,57,19.90
2015,06,27,02,58,19.90
2015,06,27,02,59,19.90
2015,06,27,03,00,19.90
2015,06,27,03,01,19.90
2015,06,27,03,02,19.90
2015,06,27,03,03,20.00
2015,06,27,03,04,20.00
2015,06,27,03,05,20.00
2015,06,27,03,06,20.00
2015,06,27,03,07,20.00
2015,06,27,03,08,20.00
2015,06,27,03,09,19.90
2015,06,27,03,10,19.90
2015,06,27,03,11,19.80
2015,06,27,03,12,19.80
2015,06,27,03,13,19.80
2015,06,27,03,14,19.70
2015,06,27,03,15,19.70
2015,06,27,03,16,19.70
2015,06,27,03,17,19.70
2015,06,27,03,18,19.60
2015,06,27,03,19,19.60
2015,06,27,03,20,19.60
2015,06,27,03,21,19.60
2015,06,27,03,22,19.50
2015,06,27,03,23,19.50
2015,06,27,03,24,19.50
2015,06,27,03,25,19.50
2015,06,27,03,26,19.50
2015,06,27,03,27,19.50
2015,06,27,03,28,19.50
2015,06,27,03,29,19.50
2015,06,27,03,30,19.50
2015,06,27,03,31,19.50
2015,06,27,03,32,19.50
2015,06,27,03,33,19.50
2015,06,27,03,34,19.50
2015,06,27,03,35,19.60
2015,06,27,03,36,19.60
2015,06,27,03,37,19.60
2015,06,27,03,38,19.60
2015,06,27,03,39,19.60
2015,06,27,03,40,19.60
2015,06,27,03,41,19.60
2015,06,27,03,42,19.60
2015,06,27,03,43,19.60
2015,06,27,03,44,19.60
2015,06,27,03,45,19.60
2015,06,27,03,46,19.60
2015,06,27,03,47,19.50
2015,06,27,03,48,19.50
2015,06,27,03,49,19.40
2015,06,27,03,50,19.40
2015,06,27,03,51,19.40
2015,06,27,03,52,19.30
2015,06,27,03,53,19.30
2015,06,27,03,54,19.30
2015,06,27,03,55,19.30
2015,06,27,03,56,19.30
2015,06,27,03,57,19.20
2015,06,27,03,58,19.20
2015,06,27,03,59,19.20
2015,06,27,04,00,19.30
2015,06,27,04,01,19.30
2015,06,27,04,02,19.30
2015,06,27,04,03,19.40
2015,06,27,04,04,19.40
2015,06,27,04,05,19.50
2015,06,27,04,06,19.50
2015,06,27,04,07,19.50
2015,06,27,04,08,19.50
2015,06,27,04,09,19.60
2015,06,27,04,10,19.70
2015,06,27,04,11,19.70
2015,06,27,04,12,19.70
2015,06,27,04,13,19.80
2015,06,27,04,14,19.80
2015,06,27,04,15,19.80
2015,06,27,04,16,19.80
2015,06,27,04,17,19.80
2015,06,27,04,18,19.80
2015,06,27,04,19,19.80
2015,06,27,04,20,19.80
2015,06,27,04,21,19.80
2015,06,27,04,22,19.70
2015,06,27,04,23,19.70
2015,06,27,04,24,19.70
2015,06,27,04,25,19.70
2015,06,27,04,26,19.70
2015,06,27,04,27,19.70
2015,06,27,04,28,19.70
2015,06,27,04,29,19.70
2015,06,27,04,30,19.70
2015,06,27,04,31,19.70
2015,06,27,04,32,19.70
2015,06,27,04,33,19.60
2015,06,27,04,34,19.60
2015,06,27,04,35,19.60
2015,06,27,04,36,19.60
2015,06,27,04,37,19.60
2015,06,27,04,38,19.60
2015,06,27,04,39,19.60
2015,06,27,04,40,19.60
2015,06,27,04,41,19.60
2015,06,27,04,42,19.60
2015,06,27,04,43,19.60
2015,06,27,04,44,19.70
2015,06,27,04,45,19.70
2015,06,27,04,46,19.70
2015,06,27,04,47,19.80
2015,06,27,04,48,19.80
2015,06,27,04,49,19.80
2015,06,27,04,50,19.80
2015,06,27,04,51,19.90
2015,06,27,04,52,19.90
2015,06,27,04,53,19.90
2015,06,27,04,54,19.90
2015,06,27,04,55,19.90
2015,06,27,04,56,19.90
2015,06,27,04,57,19.90
2015,06,27,04,58,19.90
2015,06,27,04,59,19.90
2015,06,27,05,00,19.90
2015,06,27,05,01,19.90
2015,06,27,05,02,19.90
2015,06,27,05,03,19.80
2015,06,27,05,04,19.80
2015,06,27,05,05,19.80
2015,06,27,05,06,19.80
2015,06,27,05,07,19.80
2015,06,27,05,08,19.80
2015,06,27,05,09,19.80
2015,06,27,05,10,19.80
2015,06,27,05,11,19.90
2015,06,27,05,12,19.90
2015,06,27,05,13,19.90
2015,06,27,05,14,19.90
2015,06,27,05,15,19.90
2015,06,27,05,16,19.90
2015,06,27,05,17,19.90
2015,06,27,05,18,19.90
2015,06,27,05,19,19.90
2015,06,27,05,20,19.90
2015,06,27,05,21,19.90
2015,06,27,05,22,19.90
2015,06,27,05,23,19.90
2015,06,27,05,24,19.90
2015,06,27,05,25,19.90
2015,06,27,05,26,19.80
2015,06,27,05,27,19.80
2015,06,27,05,28,19.80
2015,06,27,05,29,19.80
2015,06,27,05,30,19.80
2015,06,27,05,31,19.80
2015,06,27,05,32,19.80
2015,06,27,05,33,19.80
2015,06,27,05,34,19.80
2015,06,27,05,35,19.80
2015,06,27,05,36,19.80
2015,06,27,05,37,19.80
2015,06,27,05,38,19.80
2015,06,27,05,39,19.80
2015,06,27,05,40,19.80
2015,06,27,05,41,19.80
2015,06,27,05,42,19.80
2015,06,27,05,43,19.80
2015,06,27,05,44,19.80
2015,06,27,05,45,19.80
2015,06,27,05,46,19.80
2015,06,27,05,47,19.80
2015,06,27,05,48,19.80
2015,06,27,05,49,19.80
2015,06,27,05,50,19.80
2015,06,27,05,51,19.80
2015,06,27,05,52,19.80
2015,06,27,05,53,19.80
2015,06,27,05,54,19.80
2015,06,27,05,55,19.80
2015,06,27,05,56,19.80
2015,06,27,05,57,19.80
2015,06,27,05,58,19.80
2015,06,27,05,59,19.80
2015,06,27,06,00,19.90
2015,06,27,06,01,19.90
2015,06,27,06,02,19.90
2015,06,27,06,03,19.90
2015,06,27,06,04,19.90
2015,06,27,06,05,19.90
2015,06,27,06,06,19.90
2015,06,27,06,07,19.90
2015,06,27,06,08,19.90
2015,06,27,06,09,19.90
2015,06,27,06,10,19.90
2015,06,27,06,11,19.90
2015,06,27,06,12,19.90
2015,06,27,06,13,19.90
2015,06,27,06,14,19.90
2015,06,27,06,15,19.90
2015,06,27,06,16,19.90
2015,06,27,06,17,19.90
2015,06,27,06,18,19.90
2015,06,27,06,19,19.90
2015,06,27,06,20,19.90
2015,06,27,06,21,19.90
2015,06,27,06,22,19.90
2015,06,27,06,23,19.90
2015,06,27,06,24,19.90
2015,06,27,06,25,19.80
2015,06,27,06,26,19.80
2015,06,27,06,27,19.70
2015,06,27,06,28,19.70
2015,06,27,06,29,19.70
2015,06,27,06,30,19.60
2015,06,27,06,31,19.60
2015,06,27,06,32,19.50
2015,06,27,06,33,19.50
2015,06,27,06,34,19.50
2015,06,27,06,35,19.40
2015,06,27,06,36,19.40
2015,06,27,06,37,19.40
2015,06,27,06,38,19.30
2015,06,27,06,39,19.30
2015,06,27,06,40,19.30
2015,06,27,06,41,19.30
2015,06,27,06,42,19.30
2015,06,27,06,43,19.40
2015,06,27,06,44,19.40
2015,06,27,06,45,19.40
2015,06,27,06,46,19.50
2015,06,27,06,47,19.50
2015,06,27,06,48,19.50
2015,06,27,06,49,19.60
2015,06,27,06,50,19.60
2015,06,27,06,51,19.60
2015,06,27,06,52,19.60
2015,06,27,06,53,19.70
2015,06,27,06,54,19.70
2015,06,27,06,55,19.70
2015,06,27,06,56,19.80
2015,06,27,06,57,19.80
2015,06,27,06,58,19.80
2015,06,27,06,59,19.90
2015,06,27,07,00,19.90
2015,06,27,07,01,19.90
2015,06,27,07,02,20.00
2015,06,27,07,03,20.00
2015,06,27,07,04,20.00
2015,06,27,07,05,20.10
2015,06,27,07,06,20.10
2015,06,27,07,07,20.10
2015,06,27,07,08,20.20
2015,06,27,07,09,20.20
2015,06,27,07,10,20.20
2015,06,27,07,11,20.20
2015,06,27,07,12,20.20
2015,06,27,07,13,20.20
2015,06,27,07,14,20.20
2015,06,27,07,15,20.30
2015,06,27,07,16,20.30
2015,06,27,07,17,20.30
2015,06,27,07,18,20.30
2015,06,27,07,19,20.30
2015,06,27,07,20,20.30
2015,06,27,07,21,20.30
2015,06,27,07,22,20.30
2015,06,27,07,23,20.30
2015,06,27,07,24,20.30
2015,06,27,07,25,20.30
2015,06,27,07,26,20.30
2015,06,27,07,27,20.30
2015,06,27,07,28,20.30
2015,06,27,07,29,20.30
2015,06,27,07,30,20.30
2015,06,27,07,31,20.30
2015,06,27,07,32,20.30
2015,06,27,07,33,20.30
2015,06,27,07,34,20.40
2015,06,27,07,35,20.40
2015,06,27,07,36,20.40
2015,06,27,07,37,20.40
2015,06,27,07,38,20.40
2015,06,27,07,39,20.50
2015,06,27,07,40,20.50
2015,06,27,07,41,20.50
2015,06,27,07,42,20.60
2015,06,27,07,43,20.60
2015,06,27,07,44,20.60
2015,06,27,07,45,20.60
2015,06,27,07,46,20.60
2015,06,27,07,47,20.60
2015,06,27,07,48,20.60
2015,06,27,07,49,20.60
2015,06,27,07,50,20.70
2015,06,27,07,51,20.70
2015,06,27,07,52,20.70
2015,06,27,07,53,20.70
2015,06,27,07,54,20.70
2015,06,27,07,55,20.70
2015,06,27,07,56,20.70
2015,06,27,07,57,20.80
2015,06,27,07,58,20.80
2015,06,27,07,59,20.80
2015,06,27,08,00,20.90
2015,06,27,08,01,20.90
2015,06,27,08,02,21.00
2015,06,27,08,03,21.00
2015,06,27,08,04,21.00
2015,06,27,08,05,21.00
2015,06,27,08,06,20.90
2015,06,27,08,07,20.90
2015,06,27,08,08,20.80
2015,06,27,08,09,20.80
2015,06,27,08,10,20.80
2015,06,27,08,11,20.80
2015,06,27,08,12,20.80
2015,06,27,08,13,20.70
2015,06,27,08,14,20.70
2015,06,27,08,15,20.70
2015,06,27,08,16,20.70
2015,06,27,08,17,20.80
2015,06,27,08,18,20.80
2015,06,27,08,19,20.80
2015,06,27,08,20,20.90
2015,06,27,08,21,20.90
2015,06,27,08,22,20.90
2015,06,27,08,23,20.90
2015,06,27,08,24,20.90
2015,06,27,08,25,20.90
2015,06,27,08,26,21.00
2015,06,27,08,27,21.00
2015,06,27,08,28,21.00
2015,06,27,08,29,21.00
2015,06,27,08,30,21.00
2015,06,27,08,31,21.00
2015,06,27,08,32,21.10
2015,06,27,08,33,21.10
2015,06,27,08,34,21.10
2015,06,27,08,35,21.20
2015,06,27,08,36,21.20
2015,06,27,08,37,21.20
2015,06,27,08,38,21.20
2015,06,27,08,39,21.30
2015,06,27,08,40,21.30
2015,06,27,08,41,21.30
2015,06,27,08,42,21.30
2015,06,27,08,43,21.30
2015,06,27,08,44,21.30
2015,06,27,08,45,21.30
2015,06,27,08,46,21.30
2015,06,27,08,47,21.30
2015,06,27,08,48,21.30
2015,06,27,08,49,21.40
2015,06,27,08,50,21.40
2015,06,27,08,51,21.40
2015,06,27,08,52,21.40
2015,06,27,08,53,21.40
2015,06,27,08,54,21.40
2015,06,27,08,55,21.40
2015,06,27,08,56,21.50
2015,06,27,08,57,21.50
2015,06,27,08,58,21.60
2015,06,27,08,59,21.60
2015,06,27,09,00,21.60
2015,06,27,09,01,21.60
2015,06,27,09,02,21.70
2015,06,27,09,03,21.80
2015,06,27,09,04,21.80
2015,06,27,09,05,21.80
2015,06,27,09,06,21.80
2015,06,27,09,07,21.80
2015,06,27,09,08,21.80
2015,06,27,09,09,21.80
2015,06,27,09,10,21.80
2015,06,27,09,11,21.80
2015,06,27,09,12,21.80
2015,06,27,09,13,21.80
2015,06,27,09,14,21.80
2015,06,27,09,15,21.80
2015,06,27,09,16,21.80
2015,06,27,09,17,21.80
2015,06,27,09,18,21.80
2015,06,27,09,19,21.60
2015,06,27,09,20,21.60
2015,06,27,09,21,21.60
2015,06,27,09,22,21.60
2015,06,27,09,23,21.60
2015,06,27,09,24,21.70
2015,06,27,09,25,21.70
2015,06,27,09,26,21.80
2015,06,27,09,27,21.80
2015,06,27,09,28,21.90
2015,06,27,09,29,21.90
2015,06,27,09,30,21.90
2015,06,27,09,31,21.90
2015,06,27,09,32,21.90
2015,06,27,09,33,22.00
2015,06,27,09,34,22.00
2015,06,27,09,35,22.10
2015,06,27,09,36,22.10
2015,06,27,09,37,22.10
2015,06,27,09,38,22.10
2015,06,27,09,39,22.10
2015,06,27,09,40,22.10
2015,06,27,09,41,22.20
2015,06,27,09,42,22.20
2015,06,27,09,43,22.30
2015,06,27,09,44,22.30
2015,06,27,09,45,22.40
2015,06,27,09,46,22.40
2015,06,27,09,47,22.40
2015,06,27,09,48,22.40
2015,06,27,09,49,22.40
2015,06,27,09,50,22.50
2015,06,27,09,51,22.50
2015,06,27,09,52,22.50
2015,06,27,09,53,22.50
2015,06,27,09,54,22.50
2015,06,27,09,55,22.60
2015,06,27,09,56,22.60
2015,06,27,09,57,22.60
2015,06,27,09,58,22.60
2015,06,27,09,59,22.60
2015,06,27,10,00,22.60
2015,06,27,10,01,22.70
2015,06,27,10,02,22.60
2015,06,27,10,03,22.60
2015,06,27,10,04,22.60
2015,06,27,10,05,22.70
2015,06,27,10,06,22.70
2015,06,27,10,07,22.70
2015,06,27,10,08,22.70
2015,06,27,10,09,22.70
2015,06,27,10,10,22.70
2015,06,27,10,11,22.70
2015,06,27,10,12,22.70
2015,06,27,10,13,22.70
2015,06,27,10,14,22.80
2015,06,27,10,15,22.80
2015,06,27,10,16,22.80
2015,06,27,10,17,22.80
2015,06,27,10,18,22.80
2015,06,27,10,19,22.70
2015,06,27,10,20,22.70
2015,06,27,10,21,22.70
2015,06,27,10,22,22.70
2015,06,27,10,23,22.80
2015,06,27,10,24,22.90
2015,06,27,10,25,22.90
2015,06,27,10,26,22.90
2015,06,27,10,27,22.90
2015,06,27,10,28,22.90
2015,06,27,10,29,23.00
2015,06,27,10,30,23.10
2015,06,27,10,31,23.20
2015,06,27,10,32,23.10
2015,06,27,10,33,23.10
2015,06,27,10,34,23.10
2015,06,27,10,35,23.20
2015,06,27,10,36,23.20
2015,06,27,10,37,23.20
2015,06,27,10,38,23.20
2015,06,27,10,39,23.20
2015,06,27,10,40,23.30
2015,06,27,10,41,23.30
2015,06,27,10,42,23.40
2015,06,27,10,43,23.40
2015,06,27,10,44,23.40
2015,06,27,10,45,23.40
2015,06,27,10,46,23.40
2015,06,27,10,47,23.40
2015,06,27,10,48,23.30
2015,06,27,10,49,23.30
2015,06,27,10,50,23.30
2015,06,27,10,51,23.30
2015,06,27,10,52,23.30
2015,06,27,10,53,23.30
2015,06,27,10,54,23.40
2015,06,27,10,55,23.40
2015,06,27,10,56,23.40
2015,06,27,10,57,23.50
2015,06,27,10,58,23.50
2015,06,27,10,59,23.60
2015,06,27,11,00,23.60
2015,06,27,11,01,23.60
2015,06,27,11,02,23.60
2015,06,27,11,03,23.60
2015,06,27,11,04,23.70
2015,06,27,11,05,23.70
2015,06,27,11,06,23.70
2015,06,27,11,07,23.80
2015,06,27,11,08,23.90
2015,06,27,11,09,24.00
2015,06,27,11,10,24.10
2015,06,27,11,11,24.20
2015,06,27,11,12,24.20
2015,06,27,11,13,24.20
2015,06,27,11,14,24.20
2015,06,27,11,15,24.20
2015,06,27,11,16,24.20
2015,06,27,11,17,24.20
2015,06,27,11,18,24.30
2015,06,27,11,19,24.20
2015,06,27,11,20,24.20
2015,06,27,11,21,24.20
2015,06,27,11,22,24.20
2015,06,27,11,23,24.30
2015,06,27,11,24,24.40
2015,06,27,11,25,24.40
2015,06,27,11,26,24.40
2015,06,27,11,27,24.40
2015,06,27,11,28,24.50
2015,06,27,11,29,24.50
2015,06,27,11,30,24.50
2015,06,27,11,31,24.60
2015,06,27,11,32,24.60
2015,06,27,11,33,24.70
2015,06,27,11,34,24.70
2015,06,27,11,35,24.80
2015,06,27,11,36,24.80
2015,06,27,11,37,24.80
2015,06,27,11,38,24.80
2015,06,27,11,39,24.90
2015,06,27,11,40,25.00
2015,06,27,11,41,25.10
2015,06,27,11,42,25.10
2015,06,27,11,43,25.10
2015,06,27,11,44,25.20
2015,06,27,11,45,25.30
2015,06,27,11,46,25.30
2015,06,27,11,47,25.30
2015,06,27,11,48,25.30
2015,06,27,11,49,25.30
2015,06,27,11,50,25.30
2015,06,27,11,51,25.30
2015,06,27,11,52,25.30
2015,06,27,11,53,25.30
2015,06,27,11,54,25.40
2015,06,27,11,55,25.30
2015,06,27,11,56,25.30
2015,06,27,11,57,25.40
2015,06,27,11,58,25.60
2015,06,27,11,59,25.70
2015,06,27,12,00,25.90
2015,06,27,12,01,25.90
2015,06,27,12,02,25.90
2015,06,27,12,03,25.90
2015,06,27,12,04,26.00
2015,06,27,12,05,26.10
2015,06,27,12,06,26.10
2015,06,27,12,07,26.10
2015,06,27,12,08,26.20
2015,06,27,12,09,26.30
2015,06,27,12,10,26.30
2015,06,27,12,11,26.40
2015,06,27,12,12,26.50
2015,06,27,12,13,26.60
2015,06,27,12,14,26.70
2015,06,27,12,15,26.80
2015,06,27,12,16,26.80
2015,06,27,12,17,26.70
2015,06,27,12,18,26.70
2015,06,27,12,19,26.80
2015,06,27,12,20,26.80
2015,06,27,12,21,26.70
2015,06,27,12,22,26.70
2015,06,27,12,23,26.70
2015,06,27,12,24,26.70
2015,06,27,12,25,26.80
2015,06,27,12,26,26.70
2015,06,27,12,27,26.70
2015,06,27,12,28,26.70
2015,06,27,12,29,26.60
2015,06,27,12,30,26.60
2015,06,27,12,31,26.60
2015,06,27,12,32,26.60
2015,06,27,12,33,26.60
2015,06,27,12,34,26.60
2015,06,27,12,35,26.70
2015,06,27,12,36,26.70
2015,06,27,12,37,26.80
2015,06,27,12,38,26.80
2015,06,27,12,39,26.70
2015,06,27,12,40,26.70
2015,06,27,12,41,26.80
2015,06,27,12,42,26.70
2015,06,27,12,43,26.80
2015,06,27,12,44,26.80
2015,06,27,12,45,26.90
2015,06,27,12,46,26.90
2015,06,27,12,47,26.90
2015,06,27,12,48,26.90
2015,06,27,12,49,27.00
2015,06,27,12,50,27.10
2015,06,27,12,51,27.20
2015,06,27,12,52,27.30
2015,06,27,12,53,27.50
2015,06,27,12,54,27.60
2015,06,27,12,55,27.60
2015,06,27,12,56,27.50
2015,06,27,12,57,27.40
2015,06,27,12,58,27.20
2015,06,27,12,59,27.20
2015,06,27,13,00,27.10
2015,06,27,13,01,27.00
2015,06,27,13,02,27.00
2015,06,27,13,03,26.90
2015,06,27,13,04,26.80
2015,06,27,13,05,26.70
2015,06,27,13,06,26.60
2015,06,27,13,07,26.60
2015,06,27,13,08,26.50
2015,06,27,13,09,26.50
2015,06,27,13,10,26.50
2015,06,27,13,11,26.40
2015,06,27,13,12,26.40
2015,06,27,13,13,26.50
2015,06,27,13,14,26.50
2015,06,27,13,15,26.60
2015,06,27,13,16,26.60
2015,06,27,13,17,26.70
2015,06,27,13,18,26.80
2015,06,27,13,19,26.90
2015,06,27,13,20,27.00
2015,06,27,13,21,27.10
2015,06,27,13,22,27.20
2015,06,27,13,23,27.30
2015,06,27,13,24,27.20
2015,06,27,13,25,27.20
2015,06,27,13,26,27.20
2015,06,27,13,27,27.30
2015,06,27,13,28,27.30
2015,06,27,13,29,27.40
2015,06,27,13,30,27.50
2015,06,27,13,31,27.60
2015,06,27,13,32,27.60
2015,06,27,13,33,27.70
2015,06,27,13,34,27.90
2015,06,27,13,35,28.00
2015,06,27,13,36,28.20
2015,06,27,13,37,28.30
2015,06,27,13,38,28.20
2015,06,27,13,39,28.20
2015,06,27,13,40,28.20
2015,06,27,13,41,28.10
2015,06,27,13,42,28.20
2015,06,27,13,43,28.30
2015,06,27,13,44,28.40
2015,06,27,13,45,28.30
2015,06,27,13,46,28.20
2015,06,27,13,47,28.20
2015,06,27,13,48,28.10
2015,06,27,13,49,28.10
2015,06,27,13,50,28.10
2015,06,27,13,51,28.10
2015,06,27,13,52,28.00
2015,06,27,13,53,28.00
2015,06,27,13,54,28.00
2015,06,27,13,55,28.00
2015,06,27,13,56,28.20
2015,06,27,13,57,28.20
2015,06,27,13,58,28.30
2015,06,27,13,59,28.30
2015,06,27,14,00,28.30
2015,06,27,14,01,28.30
2015,06,27,14,02,28.20
2015,06,27,14,03,28.20
2015,06,27,14,04,28.20
2015,06,27,14,05,28.30
2015,06,27,14,06,28.40
2015,06,27,14,07,28.40
2015,06,27,14,08,28.30
2015,06,27,14,09,28.20
2015,06,27,14,10,28.10
2015,06,27,14,11,28.00
2015,06,27,14,12,27.90
2015,06,27,14,13,27.90
2015,06,27,14,14,27.90
2015,06,27,14,15,27.90
2015,06,27,14,16,27.90
2015,06,27,14,17,27.90
2015,06,27,14,18,27.90
2015,06,27,14,19,27.90
2015,06,27,14,20,27.90
2015,06,27,14,21,28.00
2015,06,27,14,22,28.00
2015,06,27,14,23,28.10
2015,06,27,14,24,28.10
2015,06,27,14,25,28.00
2015,06,27,14,26,28.10
2015,06,27,14,27,28.10
2015,06,27,14,28,28.10
2015,06,27,14,29,28.20
2015,06,27,14,30,28.20
2015,06,27,14,31,28.20
2015,06,27,14,32,28.20
2015,06,27,14,33,28.10
2015,06,27,14,34,28.20
2015,06,27,14,35,28.20
2015,06,27,14,36,28.20
2015,06,27,14,37,28.30
2015,06,27,14,38,28.30
2015,06,27,14,39,28.30
2015,06,27,14,40,28.30
2015,06,27,14,41,28.30
2015,06,27,14,42,28.30
2015,06,27,14,43,28.30
2015,06,27,14,44,28.40
2015,06,27,14,45,28.40
2015,06,27,14,46,28.40
2015,06,27,14,47,28.30
2015,06,27,14,48,28.30
2015,06,27,14,49,28.30
2015,06,27,14,50,28.30
2015,06,27,14,51,28.30
2015,06,27,14,52,28.30
2015,06,27,14,53,28.30
2015,06,27,14,54,28.50
2015,06,27,14,55,28.50
2015,06,27,14,56,28.50
2015,06,27,14,57,28.50
2015,06,27,14,58,28.50
2015,06,27,14,59,28.60
2015,06,27,15,00,28.60
2015,06,27,15,01,28.60
2015,06,27,15,02,28.60
2015,06,27,15,03,28.70
2015,06,27,15,04,28.70
2015,06,27,15,05,28.70
2015,06,27,15,06,28.70
2015,06,27,15,07,28.80
2015,06,27,15,08,28.80
2015,06,27,15,09,28.90
2015,06,27,15,10,29.10
2015,06,27,15,11,29.20
2015,06,27,15,12,29.20
2015,06,27,15,13,29.20
2015,06,27,15,14,29.20
2015,06,27,15,15,29.20
2015,06,27,15,16,29.20
2015,06,27,15,17,29.20
2015,06,27,15,18,29.20
2015,06,27,15,19,29.20
2015,06,27,15,20,29.20
2015,06,27,15,21,29.30
2015,06,27,15,22,29.20
2015,06,27,15,23,29.20
2015,06,27,15,24,29.10
2015,06,27,15,25,29.20
2015,06,27,15,26,29.30
2015,06,27,15,27,29.30
2015,06,27,15,28,29.20
2015,06,27,15,29,29.20
2015,06,27,15,30,29.20
2015,06,27,15,31,29.20
2015,06,27,15,32,29.20
2015,06,27,15,33,29.20
2015,06,27,15,34,29.20
2015,06,27,15,35,29.20
2015,06,27,15,36,29.20
2015,06,27,15,37,29.30
2015,06,27,15,38,29.30
2015,06,27,15,39,29.40
2015,06,27,15,40,29.40
2015,06,27,15,41,29.40
2015,06,27,15,42,29.40
2015,06,27,15,43,29.40
2015,06,27,15,44,29.50
2015,06,27,15,45,29.60
2015,06,27,15,46,29.80
2015,06,27,15,47,29.90
2015,06,27,15,48,30.00
2015,06,27,15,49,30.00
2015,06,27,15,50,30.10
2015,06,27,15,51,30.10
2015,06,27,15,52,30.10
2015,06,27,15,53,30.10
2015,06,27,15,54,30.10
2015,06,27,15,55,30.10
2015,06,27,15,56,30.10
2015,06,27,15,57,30.10
2015,06,27,15,58,30.20
2015,06,27,15,59,30.20
2015,06,27,16,00,30.20
2015,06,27,16,01,30.20
2015,06,27,16,02,30.10
2015,06,27,16,03,30.10
2015,06,27,16,04,30.20
2015,06,27,16,05,30.20
2015,06,27,16,06,30.20
2015,06,27,16,07,30.20
2015,06,27,16,08,30.30
2015,06,27,16,09,30.30
2015,06,27,16,10,30.30
2015,06,27,16,11,30.40
2015,06,27,16,12,30.50
2015,06,27,16,13,30.60
2015,06,27,16,14,30.60
2015,06,27,16,15,30.70
2015,06,27,16,16,30.70
2015,06,27,16,17,30.60
2015,06,27,16,18,30.60
2015,06,27,16,19,30.70
2015,06,27,16,20,30.70
2015,06,27,16,21,30.70
2015,06,27,16,22,30.70
2015,06,27,16,23,30.70
2015,06,27,16,24,30.60
2015,06,27,16,25,30.70
2015,06,27,16,26,30.70
2015,06,27,16,27,30.70
2015,06,27,16,28,30.80
2015,06,27,16,29,30.80
2015,06,27,16,30,30.80
2015,06,27,16,31,30.80
2015,06,27,16,32,30.80
2015,06,27,16,33,30.80
2015,06,27,16,34,30.80
2015,06,27,16,35,30.70
2015,06,27,16,36,30.70
2015,06,27,16,37,30.70
2015,06,27,16,38,30.60
2015,06,27,16,39,30.60
2015,06,27,16,40,30.70
2015,06,27,16,41,30.70
2015,06,27,16,42,30.70
2015,06,27,16,43,30.70
2015,06,27,16,44,30.80
2015,06,27,16,45,30.80
2015,06,27,16,46,30.90
2015,06,27,16,47,30.90
2015,06,27,16,48,30.90
2015,06,27,16,49,31.00
2015,06,27,16,50,31.00
2015,06,27,16,51,30.90
2015,06,27,16,52,30.90
2015,06,27,16,53,30.90
2015,06,27,16,54,30.80
2015,06,27,16,55,30.80
2015,06,27,16,56,30.80
2015,06,27,16,57,30.90
2015,06,27,16,58,31.00
2015,06,27,16,59,31.00
2015,06,27,17,00,31.00
2015,06,27,17,01,31.00
2015,06,27,17,02,31.00
2015,06,27,17,03,31.10
2015,06,27,17,04,31.10
2015,06,27,17,05,31.20
2015,06,27,17,06,31.20
2015,06,27,17,07,31.20
2015,06,27,17,08,31.10
2015,06,27,17,09,31.10
2015,06,27,17,10,31.10
2015,06,27,17,11,31.20
2015,06,27,17,12,31.20
2015,06,27,17,13,31.20
2015,06,27,17,14,31.20
2015,06,27,17,15,31.20
2015,06,27,17,16,31.20
2015,06,27,17,17,31.30
2015,06,27,17,18,31.40
2015,06,27,17,19,31.40